User: anonymous   Login
Location: Earls Croome
(52.0667°N, 2.2000°W)
Time: 21:13:57
(UTC+00:00)
Language:

Cosmos 2322 - Orbit

View from above orbital plane
View from above orbital plane
View from above satellite
View from above satellite

Ground track
Ground track

The orbit data is extracted from the following two-line orbital elements,

1 23704U 95058A   20020.60826578 -.00000264 +00000-0 -11536-3 0  9992
2 23704 070.9825 217.9530 0007008 105.2846 254.9050 14.13409866249504
Epoch (UTC): 20 January 2020 14:35:54
Eccentricity: 0.0007008
inclination: 70.9825°
perigee height: 842 km
apogee height: 853 km
right ascension of ascending node: 217.9530°
argument of perigee: 105.2846°
revolutions per day: 14.13409866
mean anomaly at epoch: 254.9050°
orbit number at epoch: 24950

The dashed part of the orbit path shows where the satellite is in the earth's shadow,  

DLR